Helicity
-4 -29 -22 -5 -1 17 21 55 100 148 212 271 194 259 182 275 320 336 337 359 350 347
51 14 8 33 104 125 75 89 173 174 206 283 256 226 291 339 327 331 352 295 321 355
113 58 88 103 102 141 126 109 146 149 169 237 250 329 321 309 311 333 313 340 368 346
123 94 172 239 195 37 141 116 145 183 200 257 266 277 320 315 324 332 365 349 356 232
186 206 227 201 352 282 84 40 112 114 130 195 230 289 311 335 333 365 344 301 257 204
303 288 258 264 273 125 91 63 128 157 164 225 264 304 331 342 322 285 258 252 236 228
333 205 268 323 244 179 171 235 264 249 287 323 342 351 352 349 314 308 291 245 243 230
245 210 359 388 337 280 330 358 337 359 374 383 379 357 359 329 314 313 305 275 257 226
422 395 373 339 342 396 390 402 385 400 400 387 365 355 347 329 318 301 289 273 227 229
448 415 419 425 416 412 376 411 422 392 384 378 360 325 318 327 325 324 305 279 251 268
458 476 471 462 435 403 400 381 374 365 346 349 324 337 352 345 341 333 312 296 268 236
454 494 483 435 409 397 406 377 351 350 354 365 347 334 350 336 335 320 296 255 230 211
487 491 443 400 354 321 341 381 379 397 370 364 393 366 338 309 284 330 301 270 247 243
410 408 365 322 307 335 400 435 464 477 455 481 428 389 357 314 317 302 271 243 215 173
Wind_Speed
51 46 52 52 35 44 43 43 29 25 24 35 31 24 21 21 26 25 25 30 35 32
51 54 45 29 26 27 47 32 19 24 22 17 20 25 21 20 19 24 29 26 28 27
47 44 33 30 25 30 58 52 18 15 18 18 21 21 16 17 22 26 28 26 24 29
33 31 30 34 32 33 63 48 30 22 19 22 21 19 20 23 23 24 26 26 29 27
35 34 28 45 33 42 58 14 11 14 16 16 18 20 20 23 25 26 26 24 25 28
18 24 28 21 18 32 25 16 12 13 14 16 18 18 21 22 23 22 24 24 26 30
25 24 18 21 16 13 15 15 11 17 17 18 19 21 22 23 22 25 25 25 27 26
14 14 13 12 12 11 9 10 14 17 18 19 20 21 21 24 24 23 26 25 29 35
10 9 9 8 7 8 10 11 13 16 18 21 23 21 22 21 22 22 24 30 33 38
10 8 6 6 7 9 10 13 17 19 19 23 23 19 17 18 21 26 31 35 37 37
9 8 8 9 11 13 15 14 14 15 16 17 17 15 18 23 27 30 30 33 38 41
11 13 13 12 13 12 8 9 10 13 15 17 19 19 20 21 24 27 33 38 43 46
13 14 15 12 8 7 9 13 16 20 21 18 20 19 21 23 26 33 39 44 47 51
13 11 8 7 8 10 14 17 19 20 22 20 20 24 26 29 34 39 44 48 52 53
Wind_Direction
189 188 193 194 196 197 199 200 209 223 251 274 280 271 285 290 293 297 297 303 306 302
195 198 199 205 204 218 202 206 237 215 235 257 274 280 290 293 296 303 307 304 307 306
203 205 214 261 238 213 246 271 274 254 251 261 281 279 281 296 305 307 310 309 307 312
225 238 258 266 275 280 266 273 283 287 275 286 296 298 296 305 308 309 311 309 312 310
277 264 255 267 282 284 283 272 255 293 295 303 305 304 302 306 310 309 309 310 310 311
256 220 227 244 246 197 287 293 272 291 294 302 307 311 310 311 312 312 316 312 314 316
219 217 232 243 250 245 260 270 274 301 304 305 309 314 316 317 317 316 318 319 319 322
244 256 261 251 253 265 258 265 297 304 309 311 313 316 316 318 319 320 321 325 325 325
260 263 257 247 244 262 274 294 306 306 310 314 318 321 322 323 323 326 326 325 326 329
254 255 248 241 275 281 292 304 309 310 316 319 323 326 331 335 333 329 328 328 330 334
241 231 241 261 267 280 298 305 309 319 325 329 331 336 336 333 332 333 338 337 334 332
243 252 256 257 272 286 300 313 317 324 326 327 326 328 331 336 337 336 335 335 333 332
268 261 265 270 264 283 303 314 318 321 323 327 331 334 334 334 333 330 329 332 332 333
275 268 254 252 275 290 303 313 317 321 325 328 331 333 334 334 331 328 327 328 328 330